STARLINK-32730

Last updated on Wed Jan 29 2025 00:02:04 GMT+0000 (Coordinated Universal Time)

1 62447U 24251R 25028.56262073 .00291270 00000+0 48425-2 0 9990 2 62447 53.1600 66.1739 0008123 284.7010 75.3099 15.50490839 5796
UTC large
Height (km)
Speed (km/s)
/
Latitude / Longitude
Inclination (degrees)
Orbital Period (minutes)
Azimuth
Elevation
Range (km)
Doppler Factor

Next 0 passes for location: London (51.5072 / 0.1276)

Sorry there are no passes over London.